TCA7378 TTCP-SVMG

Flight info

Callsign TCA7378
Flight time 0h 46m
Altitude 38000
Route TAMBU DCT DAREK DCT AKPUX EKONU
Aircraft C25B/M-SDE2E3FGHRWXY/LB1

Departure

Time 2026-05-07 22:00
Airport A.N.R. Robinson International Airport (TTCP)

Arrival

Time 2026-05-07 22:46
Airport Del Caribe Santiago Mariño International Airport (SVMG)
Time Latitude Longitude Altitude Speed Heading
2026-05-07 21:51 11.15181 -60.84151 32 ft 0 kts
2026-05-07 21:58 11.15184 -60.84150 32 ft 2 kts 23°
2026-05-07 21:58 11.15181 -60.84136 32 ft 4 kts 174°
2026-05-07 21:58 11.15143 -60.84138 33 ft 8 kts 183°
2026-05-07 21:59 11.15084 -60.84165 35 ft 11 kts 223°
2026-05-07 21:59 11.15038 -60.84150 36 ft 10 kts 94°
2026-05-07 21:59 11.15008 -60.83751 36 ft 114 kts 95°
2026-05-07 21:59 11.14927 -60.82675 507 ft 185 kts 94°
2026-05-07 22:00 11.14696 -60.81218 1393 ft 229 kts 109°
2026-05-07 22:00 11.13761 -60.79869 2429 ft 243 kts 139°
2026-05-07 22:00 11.12159 -60.79252 3516 ft 256 kts 172°
2026-05-07 22:00 11.10405 -60.79620 4617 ft 266 kts 206°
2026-05-07 22:01 11.09063 -60.80906 5745 ft 270 kts 239°
2026-05-07 22:01 11.08561 -60.82721 6885 ft 267 kts 264°
2026-05-07 22:01 11.08349 -60.84595 8042 ft 265 kts 264°
2026-05-07 22:01 11.08173 -60.86432 9172 ft 263 kts 265°
2026-05-07 22:02 11.07976 -60.88270 10281 ft 261 kts 264°
2026-05-07 22:02 11.07767 -60.90098 11372 ft 258 kts 265°
2026-05-07 22:02 11.07564 -60.91907 12438 ft 256 kts 264°
2026-05-07 22:02 11.07361 -60.93700 13492 ft 254 kts 265°
2026-05-07 22:03 11.07167 -60.95471 14536 ft 251 kts 264°
2026-05-07 22:03 11.06967 -60.97226 15569 ft 248 kts 264°
2026-05-07 22:03 11.06774 -60.98962 16586 ft 245 kts 265°
2026-05-07 22:03 11.06580 -61.00676 17598 ft 242 kts 264°
2026-05-07 22:04 11.06396 -61.02351 18532 ft 243 kts 264°
2026-05-07 22:04 11.06205 -61.04034 19627 ft 233 kts 263°
2026-05-07 22:04 11.06023 -61.05665 20552 ft 233 kts 262°
2026-05-07 22:04 11.05836 -61.07313 21358 ft 236 kts 262°
2026-05-07 22:05 11.05650 -61.08972 22181 ft 237 kts 262°
2026-05-07 22:05 11.05463 -61.10647 22956 ft 239 kts 262°
2026-05-07 22:05 11.05273 -61.12333 23743 ft 240 kts 262°
2026-05-07 22:05 11.05080 -61.14029 24480 ft 243 kts 262°
2026-05-07 22:06 11.04888 -61.15744 25212 ft 245 kts 262°
2026-05-07 22:06 11.04694 -61.17450 25926 ft 247 kts 261°
2026-05-07 22:06 11.04498 -61.19201 26617 ft 250 kts 261°
2026-05-07 22:06 11.04298 -61.20959 27321 ft 251 kts 261°
2026-05-07 22:07 11.04099 -61.22739 27986 ft 254 kts 261°
2026-05-07 22:07 11.03896 -61.24536 28657 ft 257 kts 261°
2026-05-07 22:07 11.03692 -61.26349 29351 ft 259 kts 261°
2026-05-07 22:07 11.03483 -61.28176 30021 ft 261 kts 261°
2026-05-07 22:08 11.03279 -61.29995 30662 ft 263 kts 261°
2026-05-07 22:08 11.03065 -61.31861 31284 ft 267 kts 261°
2026-05-07 22:08 11.02854 -61.33742 31926 ft 269 kts 260°
2026-05-07 22:08 11.02639 -61.35644 32540 ft 272 kts 261°
2026-05-07 22:09 11.02419 -61.37569 33133 ft 275 kts 261°
2026-05-07 22:09 11.02198 -61.39514 33733 ft 278 kts 260°
2026-05-07 22:09 11.01970 -61.41510 33950 ft 294 kts 261°
2026-05-07 22:09 11.01725 -61.43650 33967 ft 314 kts 261°
2026-05-07 22:10 11.01469 -61.45928 33966 ft 333 kts 261°
2026-05-07 22:10 11.01199 -61.48297 33968 ft 349 kts 261°
2026-05-07 22:10 11.00915 -61.50803 33967 ft 363 kts 261°
2026-05-07 22:10 11.00621 -61.53399 33976 ft 375 kts 261°
2026-05-07 22:11 11.00018 -61.58706 33974 ft 374 kts 261°
2026-05-07 22:11 10.99421 -61.63920 33971 ft 368 kts 261°
2026-05-07 22:12 10.98836 -61.69024 33974 ft 364 kts 261°
2026-05-07 22:12 10.98254 -61.74118 33973 ft 361 kts 261°
2026-05-07 22:13 10.97674 -61.79175 33971 ft 359 kts 261°
2026-05-07 22:13 10.97093 -61.84216 33968 ft 358 kts 261°
2026-05-07 22:14 10.96521 -61.89203 33965 ft 357 kts 261°
2026-05-07 22:14 10.95943 -61.94214 33963 ft 356 kts 261°
2026-05-07 22:15 10.95365 -61.99219 33962 ft 356 kts 261°
2026-05-07 22:15 10.94784 -62.04221 33961 ft 355 kts 261°
2026-05-07 22:16 10.94214 -62.09174 33960 ft 355 kts 261°
2026-05-07 22:16 10.93635 -62.14163 33960 ft 355 kts 261°
2026-05-07 22:17 10.93058 -62.19143 33959 ft 354 kts 261°
2026-05-07 22:17 10.92481 -62.24109 33958 ft 354 kts 261°
2026-05-07 22:18 10.91615 -62.31534 33957 ft 354 kts 261°
2026-05-07 22:19 10.91037 -62.36506 33957 ft 354 kts 261°
2026-05-07 22:19 10.90455 -62.41483 33961 ft 354 kts 261°
2026-05-07 22:20 10.89874 -62.46460 33966 ft 354 kts 261°
2026-05-07 22:20 10.89289 -62.51439 33961 ft 354 kts 261°
2026-05-07 22:21 10.88708 -62.56385 33960 ft 354 kts 261°
2026-05-07 22:21 10.88126 -62.61367 33959 ft 355 kts 261°
2026-05-07 22:22 10.87535 -62.66367 33587 ft 357 kts 261°
2026-05-07 22:22 10.87242 -62.68860 33119 ft 353 kts 261°
2026-05-07 22:22 10.86955 -62.71293 32658 ft 349 kts 261°
2026-05-07 22:22 10.86668 -62.73734 32198 ft 346 kts 261°
2026-05-07 22:23 10.86382 -62.76146 31745 ft 343 kts 261°
2026-05-07 22:23 10.86101 -62.78543 31288 ft 340 kts 261°
2026-05-07 22:23 10.85817 -62.80925 30846 ft 337 kts 261°
2026-05-07 22:23 10.85543 -62.83279 30404 ft 334 kts 261°
2026-05-07 22:24 10.85262 -62.85617 29965 ft 332 kts 261°
2026-05-07 22:24 10.84989 -62.87939 29527 ft 330 kts 261°
2026-05-07 22:24 10.84719 -62.90214 29099 ft 327 kts 261°
2026-05-07 22:24 10.84445 -62.92505 28671 ft 325 kts 261°
2026-05-07 22:25 10.84178 -62.94783 28242 ft 324 kts 261°
2026-05-07 22:25 10.83907 -62.97048 27814 ft 322 kts 261°
2026-05-07 22:25 10.83638 -62.99304 27393 ft 321 kts 262°
2026-05-07 22:25 10.83373 -63.01553 26971 ft 320 kts 261°
2026-05-07 22:26 10.83106 -63.03792 26548 ft 318 kts 262°
2026-05-07 22:26 10.82841 -63.06017 26123 ft 317 kts 262°
2026-05-07 22:26 10.82578 -63.08242 25699 ft 316 kts 262°
2026-05-07 22:26 10.82316 -63.10431 25286 ft 316 kts 262°
2026-05-07 22:27 10.82051 -63.12644 24870 ft 315 kts 262°
2026-05-07 22:27 10.81787 -63.14853 24453 ft 314 kts 262°
2026-05-07 22:27 10.81527 -63.17059 24034 ft 314 kts 262°
2026-05-07 22:27 10.81261 -63.19259 23619 ft 313 kts 262°
2026-05-07 22:28 10.80999 -63.21455 23205 ft 313 kts 262°
2026-05-07 22:28 10.80738 -63.23648 22792 ft 312 kts 262°
2026-05-07 22:28 10.80475 -63.25836 22377 ft 312 kts 262°
2026-05-07 22:28 10.80217 -63.27993 21974 ft 311 kts 262°
2026-05-07 22:29 10.79955 -63.30178 21559 ft 311 kts 263°
2026-05-07 22:29 10.79695 -63.32362 21147 ft 311 kts 262°
2026-05-07 22:29 10.79432 -63.34542 20736 ft 310 kts 262°
2026-05-07 22:29 10.79171 -63.36720 20325 ft 310 kts 263°
2026-05-07 22:30 10.78912 -63.38895 19915 ft 311 kts 262°
2026-05-07 22:30 10.78647 -63.41074 19498 ft 310 kts 262°
2026-05-07 22:30 10.78391 -63.43222 19086 ft 308 kts 262°
2026-05-07 22:30 10.78130 -63.45372 18682 ft 305 kts 263°
2026-05-07 22:31 10.77876 -63.47499 18280 ft 302 kts 262°
2026-05-07 22:31 10.77618 -63.49613 17882 ft 300 kts 263°
2026-05-07 22:31 10.77369 -63.51717 17482 ft 299 kts 263°
2026-05-07 22:31 10.77112 -63.53809 17095 ft 298 kts 262°
2026-05-07 22:32 10.76864 -63.55896 16698 ft 297 kts 263°
2026-05-07 22:32 10.76613 -63.57976 16347 ft 295 kts 263°
2026-05-07 22:32 10.76362 -63.60045 15977 ft 295 kts 263°
2026-05-07 22:32 10.76111 -63.62114 15590 ft 295 kts 263°
2026-05-07 22:33 10.75863 -63.64158 15205 ft 295 kts 263°
2026-05-07 22:33 10.75613 -63.66234 14813 ft 296 kts 263°
2026-05-07 22:33 10.75363 -63.68307 14422 ft 296 kts 263°
2026-05-07 22:33 10.75111 -63.70386 14029 ft 296 kts 264°
2026-05-07 22:34 10.74854 -63.72467 13634 ft 297 kts 264°
2026-05-07 22:34 10.74606 -63.74556 13233 ft 298 kts 264°
2026-05-07 22:34 10.74349 -63.76651 12837 ft 299 kts 263°
2026-05-07 22:34 10.74095 -63.78754 12439 ft 300 kts 264°
2026-05-07 22:35 10.73840 -63.80866 12040 ft 301 kts 263°
2026-05-07 22:35 10.73584 -63.82956 11646 ft 302 kts 264°
2026-05-07 22:35 10.73328 -63.85082 11243 ft 303 kts 263°
2026-05-07 22:35 10.73065 -63.87210 10839 ft 303 kts 264°
2026-05-07 22:36 10.72807 -63.89337 10439 ft 303 kts 263°
2026-05-07 22:36 10.72553 -63.91462 10032 ft 302 kts 263°
2026-05-07 22:36 10.72296 -63.93585 9622 ft 304 kts 263°
2026-05-07 22:36 10.72032 -63.95711 9225 ft 302 kts 262°
2026-05-07 22:37 10.71766 -63.97817 8825 ft 301 kts 263°
2026-05-07 22:37 10.71524 -63.99894 8433 ft 299 kts 263°
2026-05-07 22:37 10.71302 -64.01985 8032 ft 296 kts 268°
2026-05-07 22:37 10.71597 -64.04043 7642 ft 295 kts 285°
2026-05-07 22:38 10.72323 -64.05976 7247 ft 292 kts 300°
2026-05-07 22:38 10.73387 -64.07719 6873 ft 290 kts 302°
2026-05-07 22:38 10.74563 -64.09364 6485 ft 286 kts 311°
2026-05-07 22:38 10.75870 -64.10880 6108 ft 284 kts 314°
2026-05-07 22:39 10.77315 -64.12233 5732 ft 282 kts 321°
2026-05-07 22:39 10.78809 -64.13450 5365 ft 275 kts 327°
2026-05-07 22:39 10.80399 -64.14483 5003 ft 267 kts 330°
2026-05-07 22:39 10.82001 -64.15359 4652 ft 257 kts 338°
2026-05-07 22:40 10.83608 -64.16076 4313 ft 248 kts 341°
2026-05-07 22:40 10.85235 -64.16474 3972 ft 234 kts
2026-05-07 22:40 10.86668 -64.15890 3665 ft 220 kts 43°
2026-05-07 22:40 10.87468 -64.14611 3383 ft 213 kts 68°
2026-05-07 22:41 10.87893 -64.13205 3109 ft 204 kts 75°
2026-05-07 22:41 10.88184 -64.11842 2850 ft 196 kts 78°
2026-05-07 22:41 10.88427 -64.10594 2677 ft 162 kts 77°
2026-05-07 22:41 10.88654 -64.09559 2468 ft 141 kts 78°
2026-05-07 22:42 10.88825 -64.08626 2277 ft 129 kts 76°
2026-05-07 22:42 10.89015 -64.07765 2102 ft 121 kts 77°
2026-05-07 22:42 10.89153 -64.06986 1951 ft 106 kts 78°
2026-05-07 22:42 10.89315 -64.06275 1803 ft 101 kts 75°
2026-05-07 22:43 10.89443 -64.05580 1660 ft 99 kts 80°
2026-05-07 22:43 10.89590 -64.04911 1525 ft 98 kts 74°
2026-05-07 22:43 10.89723 -64.04210 1385 ft 104 kts 81°
2026-05-07 22:43 10.89878 -64.03483 1242 ft 106 kts 73°
2026-05-07 22:44 10.90022 -64.02743 1091 ft 107 kts 81°
2026-05-07 22:44 10.90177 -64.02002 940 ft 108 kts 75°
2026-05-07 22:44 10.90333 -64.01255 786 ft 108 kts 79°
2026-05-07 22:44 10.90469 -64.00505 631 ft 108 kts 77°
2026-05-07 22:45 10.90642 -63.99760 480 ft 108 kts 78°
2026-05-07 22:45 10.90766 -63.99003 318 ft 109 kts 79°
2026-05-07 22:45 10.90931 -63.98269 152 ft 107 kts 77°
2026-05-07 22:45 10.91078 -63.97561 64 ft 93 kts 77°
2026-05-07 22:46 10.91171 -63.97111 62 ft 33 kts 79°
2026-05-07 22:46 10.91219 -63.97119 63 ft 11 kts 328°
2026-05-07 22:46 10.91312 -63.97147 55 ft 16 kts 341°
2026-05-07 22:46 10.91393 -63.97172 56 ft 8 kts 348°
2026-05-07 22:47 10.91427 -63.97156 53 ft 4 kts 15°
2026-05-07 22:47 10.91446 -63.97155 56 ft 2 kts 24°
2026-05-07 22:47 10.91451 -63.97144 56 ft 2 kts 81°
2026-05-07 22:47 10.91451 -63.97143 56 ft 0 kts 80°